Location: Unspecified
(48.2082°N, 0.0000°E)
Time: 06:54:24
(UTC+00:00)

Vanguard 1 - Pass Details

Date: 27 June 2019
Orbit: 653 x 3830 km, 34.3° (Epoch: 15 July)

Event Time Altitude Azimuth Distance (km) Brightness Sun altitude
Rises 07:36:34 0° 272° (W) 5,784 13.5 32.6°
Reaches altitude 10° 07:43:54 10° 247° (WSW) 3,920 12.8 33.8°
Maximum altitude 07:47:10 12° 227° (SW) 3,367 12.6 34.3°
Drops below altitude 10° 07:49:56 10° 206° (SSW) 3,196 12.6 34.8°
Sets 07:54:22 0° 176° (S) 3,647 13.1 35.5°
